Regional Weather Roundup
Issued by NWS

Home | Current Version | Previous Version | Graphics & Text | Print | Product List | Glossary Off
Versions: 1 2 3 4 5 6 7 8 9 10 11 12 13 14 15 16 17 18 19 20 21 22 23 24 25 26 27 28 29 30 31 32 33 34 35 36 37 38 39 40 41 42 43 44 45 46 47 48 49 50

000
ASUS43 KTOP 261908
RWRKS

WEATHER ROUNDUP FOR KANSAS
NATIONAL WEATHER SERVICE GOODLAND KS
200 PM CDT THU MAY 26 2016

NOTE:  "FAIR" INDICATES FEW OR NO CLOUDS BELOW 12,000 FEET WITH NO
SIGNIFICANT WEATHER AND/OR OBSTRUCTIONS TO VISIBILITY.

KSZ001>006-013>018-027>032-041>047-262000-
NORTHWEST KANSAS

CITY           SKY/WX    TMP DP  RH WIND       PRES   REMARKS
HAYS           PTSUNNY   72  66  83 E9        29.72F
HILL CITY      PTSUNNY   76  66  71 E14       29.76F
RUSSELL        CLOUDY    79  70  74 SE8       29.69F
$$

KSZ061>065-074>080-084>089-262000-
SOUTHWEST KANSAS

CITY           SKY/WX    TMP DP  RH WIND       PRES   REMARKS
DODGE CITY     LGT RAIN  74  59  59 W9        29.72F
ELKHART          N/A     82  47  29 W1          N/A
GARDEN CITY    PTSUNNY   77  61  57 E18       29.70F
GREAT BEND     MOSUNNY   79  66  65 SE16      29.70F
LIBERAL        SUNNY     84  50  30 SW9       29.74F
PRATT          TSTM      73  66  79 S14G31    29.75R
$$

KSZ066>073-081>083-090>101-262000-
SOUTHEAST KANSAS

CITY           SKY/WX    TMP DP  RH WIND       PRES   REMARKS
CHANUTE        PTSUNNY   85  72  65 S21G29    29.81F
COFFEYVILLE    PTSUNNY   84  74  71 S24G32    29.82F
HUTCHINSON     TSTM      67  62  84 W20       29.77R
MEDICINE LODGE   N/A     84  58  40 S17G26    29.68F
NEWTON         CLOUDY    75  70  83 S10       29.80R THUNDER
PARSONS        PTSUNNY   85  74  69 S15G25    29.83F
WICHITA INTL   CLOUDY    78  68  71 E9        29.73F
WICHITA JABRA  CLOUDY    68  62  81 SE12      29.78R THUNDER
WICHITA MCCONL TSTM      70  64  83 SE9       29.76S
WINFIELD       CLOUDY    83  74  74 S14       29.78F
$$

KSZ007>012-019>026-033>040-048>060-102>105-262000-
NORTHEAST KANSAS

CITY           SKY/WX    TMP DP  RH WIND       PRES   REMARKS
CONCORDIA      CLOUDY    79  71  76 SE8       29.72F
EMPORIA        CLOUDY    80  71  74 S15G24    29.77F
LAWRENCE       CLOUDY    81  73  76 SE16      29.78F
MANHATTAN      CLOUDY    83  71  67 S15       29.73F
MARYSVILLE     PTSUNNY   77  72  83 SE9G16    29.75F
OLATHE IND     PTSUNNY   82  72  71 SE16G25   29.83F
OLATHE EXE     MOSUNNY   82  72  71 SE13G23   29.83F
SALINA         CLOUDY    79  72  79 CALM      29.73F
TOPEKA BILLARD TSTM      79  73  82 SE12      29.74F
TOPEKA FORBES  TSTM      79  74  84 SE16G23   29.72F
$$




USA.gov is the U.S. government's official web portal to all federal, state and local government web resources and services.